Regional Weather Roundup
Issued by NWS

Home | Current Version | Previous Version | Text Only | Print | Product List | Glossary On
Versions: 1 2 3 4 5 6 7 8 9 10 11 12 13 14 15 16 17 18 19 20 21 22 23 24 25 26 27 28 29 30 31 32 33 34 35 36 37 38 39 40 41 42 43 44 45 46 47 48 49 50
000
ASUS43 KLSX 180107
RWRMO

WEATHER SUMMARY FOR MISSOURI
NATIONAL WEATHER SERVICE SPRINGFIELD MO
700 PM CST SAT FEB 17 2018

NOTE: "FAIR" INDICATES FEW OR NO CLOUDS BELOW 12,000 FEET WITH NO
       SIGNIFICANT WEATHER AND/OR OBSTRUCTIONS TO VISIBILITY.
       CURRENT SKY AND/OR WEATHER CONDITIONS ARE NOT AVAILABLE FOR
       CHILLICOTHE AND FARMINGTON.

MOZ001>031-035>038-043-044-053-054-180200-
...NORTHERN AND WESTERN MISSOURI...

CITY           SKY/WX    TMP DP  RH WIND       PRES   REMARKS
KANSAS CTY INT CLEAR     47  19  33 CALM      30.15R
KANSAS C DTWN  CLEAR     48  20  32 CALM      30.16R
LEE`S SUMMIT   CLEAR     47  19  33 CALM      30.16R
ST JOSEPH      CLEAR     33  19  56 NE6       30.16R WCI  28
CHILLICOTHE      N/A     36  19  50 CALM      30.17R
KIRKSVILLE     CLEAR     36  23  59 W5        30.14R

$$
MOZ066>068-077>081-088>096-101>105-180200-
...SOUTHWEST MISSOURI...

CITY           SKY/WX    TMP DP  RH WIND       PRES   REMARKS
SPRINGFIELD    CLEAR     39  34  82 CALM      30.16R
JOPLIN         CLEAR     43  37  79 CALM      30.18R
BRANSON        PTCLDY    41  37  87 CALM      30.19R

$$
MOZ032>034-039>042-045>050-055>058-069>072-180200-
...CENTRAL MISSOURI...

CITY           SKY/WX    TMP DP  RH WIND       PRES   REMARKS
COLUMBIA       CLEAR     45  22  40 NW5       30.15R
JEFFERSON CITY CLEAR     44  29  55 NW3       30.16R
ROLLA          CLEAR     34  31  88 W5        30.16R WCI  30
SEDALIA        CLEAR     45  21  38 W3        30.18R
WHITEMAN AFB   CLEAR     41  18  39 CALM      30.13R
WARRENSBURG    CLEAR     45  19  36 CALM      30.18R
OSAGE BEACH    CLEAR     38  35  89 NW3       30.18R

$$
MOZ051-052-059>065-180200-
...EAST CENTRAL MISSOURI...

CITY           SKY/WX    TMP DP  RH WIND       PRES   REMARKS
ST LOUIS INTL  CLEAR     37  35  92 W3        30.14R
SPIRIT OF STL  CLEAR     33  32  96 W3        30.14R
ST CHARLES     CLEAR     36  32  85 CALM      30.14R

$$
MOZ072>076-082>087-097>100-106>115-180200-
...SOUTH CENTRAL AND SOUTHEAST MISSOURI...

CITY           SKY/WX    TMP DP  RH WIND       PRES   REMARKS
CAPE GIRARDEAU CLOUDY    40  38  93 SW5       30.18R
FARMINGTON     FAIR      38  35  89 S3        30.17R
POPLAR BLUFF   FAIR      39  39 100 SW3       30.19R
WEST PLAINS    CLEAR     36  33  89 SW3       30.18R

$$



USA.gov is the U.S. government's official web portal to all federal, state and local government web resources and services.